CTN2904 LDPL-EETN

Flight info

Callsign CTN2904
Flight time 2h 15m
Altitude 35000
Route GIRDA DCT TOVKA DCT MEBAN M985 KOTEK M866 GERVI M857 BOKSU DCT GUNTA DCT KEMET
Aircraft A320/M-SDE3FGHIRWY/LB1

Departure

Time 2026-05-05 15:16
Airport Pula Airport (LDPL)

Arrival

Time 2026-05-05 17:31
Airport Lennart Meri Tallinn Airport (EETN)
Time Latitude Longitude Altitude Speed Heading
2026-05-05 14:34 44.89752 13.92395 223 ft 0 kts 314°
2026-05-05 15:10 44.89753 13.92394 219 ft 1 kts 320°
2026-05-05 15:10 44.89756 13.92409 219 ft 3 kts 96°
2026-05-05 15:10 44.89717 13.92451 219 ft 12 kts 172°
2026-05-05 15:10 44.89634 13.92458 219 ft 12 kts 178°
2026-05-05 15:11 44.89578 13.92382 218 ft 12 kts 263°
2026-05-05 15:11 44.89575 13.92255 219 ft 17 kts 268°
2026-05-05 15:11 44.89572 13.92095 219 ft 16 kts 269°
2026-05-05 15:12 44.89570 13.91929 216 ft 18 kts 269°
2026-05-05 15:12 44.89565 13.91738 206 ft 22 kts 266°
2026-05-05 15:12 44.89558 13.91505 206 ft 26 kts 269°
2026-05-05 15:12 44.89554 13.91230 191 ft 29 kts 268°
2026-05-05 15:13 44.89547 13.90937 191 ft 31 kts 267°
2026-05-05 15:13 44.89544 13.90730 196 ft 16 kts 269°
2026-05-05 15:13 44.89529 13.90586 182 ft 14 kts 241°
2026-05-05 15:13 44.89451 13.90479 179 ft 17 kts 226°
2026-05-05 15:14 44.89357 13.90377 178 ft 17 kts 184°
2026-05-05 15:14 44.89317 13.90501 178 ft 9 kts 86°
2026-05-05 15:14 44.89317 13.90504 178 ft 0 kts 86°
2026-05-05 15:15 44.89320 13.90590 179 ft 38 kts 87°
2026-05-05 15:15 44.89329 13.91333 202 ft 107 kts 88°
2026-05-05 15:15 44.89350 13.92646 236 ft 156 kts 89°
2026-05-05 15:15 44.89343 13.94181 822 ft 157 kts 96°
2026-05-05 15:16 44.89334 13.95727 1527 ft 158 kts 94°
2026-05-05 15:16 44.89378 13.97284 2114 ft 166 kts 93°
2026-05-05 15:16 44.89425 13.99010 2340 ft 188 kts 92°
2026-05-05 15:16 44.89497 14.00971 2583 ft 212 kts 85°
2026-05-05 15:17 44.90203 14.02895 2848 ft 236 kts 42°
2026-05-05 15:17 44.91748 14.03861 3174 ft 253 kts
2026-05-05 15:17 44.93518 14.04085 3906 ft 258 kts
2026-05-05 15:17 44.95178 14.05118 4546 ft 271 kts 28°
2026-05-05 15:18 44.96938 14.06163 5118 ft 277 kts 10°
2026-05-05 15:18 44.98842 14.06560 5927 ft 278 kts
2026-05-05 15:18 45.00784 14.06702 6735 ft 280 kts 358°
2026-05-05 15:18 45.02745 14.06797 7504 ft 284 kts 358°
2026-05-05 15:19 45.04735 14.06933 8236 ft 288 kts 359°
2026-05-05 15:19 45.06751 14.07128 8998 ft 293 kts
2026-05-05 15:19 45.08794 14.07377 9748 ft 297 kts
2026-05-05 15:19 45.10881 14.07669 10334 ft 308 kts
2026-05-05 15:20 45.13089 14.07996 10534 ft 331 kts
2026-05-05 15:20 45.15461 14.08358 10693 ft 354 kts
2026-05-05 15:20 45.17983 14.08747 10819 ft 376 kts
2026-05-05 15:20 45.20655 14.09169 10947 ft 396 kts
2026-05-05 15:21 45.23445 14.09613 11209 ft 409 kts
2026-05-05 15:21 45.26281 14.10060 11740 ft 413 kts
2026-05-05 15:21 45.29149 14.10510 12294 ft 417 kts
2026-05-05 15:21 45.32011 14.10957 12818 ft 422 kts
2026-05-05 15:22 45.34962 14.11418 13401 ft 426 kts
2026-05-05 15:22 45.37923 14.11880 13965 ft 429 kts
2026-05-05 15:22 45.40907 14.12345 14455 ft 433 kts
2026-05-05 15:22 45.43908 14.12842 14916 ft 436 kts
2026-05-05 15:23 45.46879 14.13860 15343 ft 443 kts 16°
2026-05-05 15:23 45.49736 14.15588 15818 ft 448 kts 26°
2026-05-05 15:23 45.52368 14.17902 16240 ft 452 kts 32°
2026-05-05 15:23 45.55007 14.20390 16651 ft 456 kts 32°
2026-05-05 15:24 45.57655 14.22882 17099 ft 457 kts 32°
2026-05-05 15:24 45.60328 14.25397 17495 ft 461 kts 32°
2026-05-05 15:24 45.63005 14.27919 17906 ft 463 kts 32°
2026-05-05 15:24 45.65702 14.30467 18285 ft 466 kts 32°
2026-05-05 15:25 45.68408 14.33028 18666 ft 467 kts 32°
2026-05-05 15:25 45.71121 14.35596 19012 ft 469 kts 32°
2026-05-05 15:25 45.73868 14.38197 19347 ft 471 kts 32°
2026-05-05 15:25 45.76612 14.40795 19652 ft 473 kts 32°
2026-05-05 15:26 45.79364 14.43406 19954 ft 475 kts 32°
2026-05-05 15:26 45.82128 14.46035 20251 ft 477 kts 32°
2026-05-05 15:26 45.84866 14.48647 20518 ft 479 kts 33°
2026-05-05 15:26 45.87635 14.51290 20795 ft 481 kts 33°
2026-05-05 15:27 45.90437 14.53966 21063 ft 483 kts 33°
2026-05-05 15:27 45.93235 14.56640 21339 ft 485 kts 33°
2026-05-05 15:27 45.96048 14.59330 21611 ft 487 kts 33°
2026-05-05 15:27 45.98877 14.62038 21861 ft 488 kts 33°
2026-05-05 15:28 46.01714 14.64758 22111 ft 490 kts 33°
2026-05-05 15:28 46.04555 14.67488 22352 ft 492 kts 33°
2026-05-05 15:28 46.07401 14.70228 22579 ft 493 kts 33°
2026-05-05 15:28 46.10257 14.72981 22801 ft 495 kts 33°
2026-05-05 15:29 46.13123 14.75746 23017 ft 496 kts 33°
2026-05-05 15:29 46.16002 14.78527 23239 ft 498 kts 33°
2026-05-05 15:29 46.18887 14.81316 23440 ft 499 kts 33°
2026-05-05 15:29 46.21772 14.84111 23611 ft 501 kts 33°
2026-05-05 15:30 46.24673 14.86925 23767 ft 503 kts 33°
2026-05-05 15:30 46.27588 14.89752 23915 ft 504 kts 33°
2026-05-05 15:30 46.30501 14.92575 24132 ft 505 kts 33°
2026-05-05 15:30 46.33416 14.95406 24338 ft 504 kts 33°
2026-05-05 15:31 46.36319 14.98236 24585 ft 503 kts 33°
2026-05-05 15:31 46.39216 15.01070 24832 ft 501 kts 33°
2026-05-05 15:31 46.42098 15.03897 25164 ft 499 kts 33°
2026-05-05 15:31 46.44932 15.06676 25451 ft 497 kts 33°
2026-05-05 15:32 46.47796 15.09480 25702 ft 497 kts 33°
2026-05-05 15:32 46.50657 15.12280 25974 ft 496 kts 33°
2026-05-05 15:32 46.53517 15.15082 26247 ft 495 kts 33°
2026-05-05 15:32 46.56366 15.17881 26526 ft 494 kts 33°
2026-05-05 15:33 46.59207 15.20678 26786 ft 493 kts 33°
2026-05-05 15:33 46.62041 15.23474 27098 ft 492 kts 33°
2026-05-05 15:33 46.64867 15.26269 27375 ft 491 kts 33°
2026-05-05 15:33 46.67693 15.29063 27657 ft 490 kts 33°
2026-05-05 15:34 46.70509 15.31850 27921 ft 490 kts 33°
2026-05-05 15:34 46.73328 15.34638 28232 ft 488 kts 33°
2026-05-05 15:34 46.76135 15.37418 28502 ft 488 kts 33°
2026-05-05 15:34 46.78937 15.40202 28851 ft 486 kts 33°
2026-05-05 15:35 46.81733 15.42980 29184 ft 484 kts 33°
2026-05-05 15:35 46.84511 15.45742 29501 ft 483 kts 33°
2026-05-05 15:35 46.87290 15.48510 29800 ft 483 kts 33°
2026-05-05 15:35 46.90055 15.51276 30086 ft 482 kts 33°
2026-05-05 15:36 46.92817 15.54048 30333 ft 481 kts 33°
2026-05-05 15:36 46.95538 15.56778 30599 ft 480 kts 33°
2026-05-05 15:36 46.98296 15.59546 30818 ft 480 kts 33°
2026-05-05 15:36 47.01049 15.62309 31071 ft 480 kts 33°
2026-05-05 15:37 47.03836 15.65108 31320 ft 479 kts 33°
2026-05-05 15:37 47.06583 15.67868 31590 ft 478 kts 33°
2026-05-05 15:37 47.08403 15.69697 31752 ft 478 kts 33°
2026-05-05 15:37 47.11143 15.72455 31999 ft 477 kts 33°
2026-05-05 15:38 47.14770 15.76114 32314 ft 477 kts 33°
2026-05-05 15:38 47.16615 15.77982 32446 ft 478 kts 33°
2026-05-05 15:38 47.20248 15.81665 32732 ft 478 kts 33°
2026-05-05 15:38 47.22096 15.83538 32878 ft 478 kts 33°
2026-05-05 15:39 47.24833 15.86314 33136 ft 477 kts 33°
2026-05-05 15:39 47.27563 15.89088 33373 ft 476 kts 33°
2026-05-05 15:39 47.30288 15.91857 33619 ft 476 kts 33°
2026-05-05 15:39 47.33013 15.94628 33865 ft 475 kts 33°
2026-05-05 15:40 47.35731 15.97400 34065 ft 475 kts 32°
2026-05-05 15:40 47.38416 16.00144 34249 ft 474 kts 33°
2026-05-05 15:40 47.41127 16.02918 34489 ft 473 kts 33°
2026-05-05 15:40 47.43835 16.05691 34666 ft 472 kts 33°
2026-05-05 15:41 47.46531 16.08455 34814 ft 473 kts 33°
2026-05-05 15:41 47.51966 16.14038 34843 ft 478 kts 32°
2026-05-05 15:42 47.57441 16.19681 34840 ft 479 kts 32°
2026-05-05 15:42 47.62916 16.25327 34825 ft 480 kts 33°
2026-05-05 15:43 47.68361 16.30961 34813 ft 480 kts 32°
2026-05-05 15:43 47.73845 16.36652 34829 ft 481 kts 33°
2026-05-05 15:44 47.79330 16.42362 34823 ft 481 kts 33°
2026-05-05 15:44 47.84811 16.48087 34822 ft 480 kts 32°
2026-05-05 15:45 47.90277 16.53808 34815 ft 479 kts 33°
2026-05-05 15:45 47.95735 16.59524 34793 ft 479 kts 32°
2026-05-05 15:46 48.01178 16.65245 34786 ft 478 kts 33°
2026-05-05 15:46 48.06582 16.70952 34783 ft 478 kts 33°
2026-05-05 15:47 48.12013 16.76695 34779 ft 479 kts 33°
2026-05-05 15:47 48.17458 16.82458 34782 ft 479 kts 33°
2026-05-05 15:48 48.22907 16.88240 34799 ft 479 kts 33°
2026-05-05 15:48 48.27896 16.94872 34791 ft 482 kts 49°
2026-05-05 15:49 48.31786 17.03091 34798 ft 483 kts 55°
2026-05-05 15:49 48.35586 17.11422 34799 ft 483 kts 54°
2026-05-05 15:50 48.39380 17.19753 34802 ft 483 kts 54°
2026-05-05 15:50 48.43163 17.28096 34801 ft 483 kts 54°
2026-05-05 15:51 48.46930 17.36452 34813 ft 482 kts 54°
2026-05-05 15:51 48.50662 17.44746 34812 ft 481 kts 55°
2026-05-05 15:52 48.54406 17.53097 34809 ft 480 kts 55°
2026-05-05 15:52 48.58147 17.61476 34816 ft 480 kts 55°
2026-05-05 15:53 48.61878 17.69837 34826 ft 479 kts 55°
2026-05-05 15:53 48.65596 17.78193 34820 ft 479 kts 55°
2026-05-05 15:54 48.69302 17.86575 34833 ft 479 kts 55°
2026-05-05 15:54 48.72997 17.94968 34833 ft 479 kts 55°
2026-05-05 15:55 48.76693 18.03350 34833 ft 479 kts 55°
2026-05-05 15:55 48.80374 18.11710 34844 ft 479 kts 56°
2026-05-05 15:56 48.84058 18.20126 34847 ft 479 kts 56°
2026-05-05 15:56 48.87732 18.28570 34845 ft 479 kts 56°
2026-05-05 15:57 48.91402 18.37019 34856 ft 479 kts 56°
2026-05-05 15:57 48.93726 18.42390 34871 ft 479 kts 56°
2026-05-05 15:58 48.97383 18.50863 34875 ft 478 kts 56°
2026-05-05 15:58 49.01036 18.59305 34880 ft 477 kts 56°
2026-05-05 15:59 49.04682 18.67773 34890 ft 477 kts 56°
2026-05-05 15:59 49.08310 18.76256 34888 ft 477 kts 56°
2026-05-05 16:00 49.11937 18.84753 34889 ft 477 kts 56°
2026-05-05 16:00 49.15563 18.93253 34894 ft 478 kts 56°
2026-05-05 16:01 49.19163 19.01723 34896 ft 478 kts 57°
2026-05-05 16:01 49.22778 19.10279 34895 ft 478 kts 57°
2026-05-05 16:02 49.26378 19.18828 34901 ft 478 kts 57°
2026-05-05 16:02 49.29974 19.27393 34896 ft 478 kts 57°
2026-05-05 16:03 49.33571 19.35981 34889 ft 479 kts 57°
2026-05-05 16:03 49.37166 19.44581 34896 ft 479 kts 57°
2026-05-05 16:04 49.40758 19.53215 34891 ft 479 kts 57°
2026-05-05 16:04 49.44849 19.61245 34891 ft 477 kts 42°
2026-05-05 16:05 49.50260 19.66998 34885 ft 473 kts 23°
2026-05-05 16:05 49.56403 19.70536 34886 ft 470 kts 17°
2026-05-05 16:06 49.62550 19.73860 34884 ft 471 kts 18°
2026-05-05 16:06 49.68732 19.77230 34884 ft 471 kts 18°
2026-05-05 16:07 49.74911 19.80610 34878 ft 471 kts 18°
2026-05-05 16:07 49.81112 19.83847 34875 ft 470 kts 15°
2026-05-05 16:08 49.87370 19.86821 34886 ft 469 kts 15°
2026-05-05 16:08 49.93583 19.89758 34838 ft 469 kts 15°
2026-05-05 16:09 49.99805 19.92786 34824 ft 468 kts 15°
2026-05-05 16:09 50.06025 19.95863 34819 ft 468 kts 15°
2026-05-05 16:10 50.12150 19.99378 34826 ft 470 kts 20°
2026-05-05 16:10 50.18172 20.03376 34830 ft 470 kts 21°
2026-05-05 16:11 50.24171 20.07457 34836 ft 470 kts 21°
2026-05-05 16:12 50.36209 20.15496 34849 ft 470 kts 21°
2026-05-05 16:13 50.51216 20.25525 34841 ft 470 kts 21°
2026-05-05 16:13 50.57225 20.29580 34837 ft 470 kts 21°
2026-05-05 16:14 50.69256 20.37711 34831 ft 470 kts 21°
2026-05-05 16:15 50.81288 20.45898 34821 ft 471 kts 21°
2026-05-05 16:16 50.93334 20.54135 34813 ft 472 kts 21°
2026-05-05 16:17 51.02342 20.60329 34814 ft 472 kts 21°
2026-05-05 16:18 51.11386 20.66582 34810 ft 473 kts 21°
2026-05-05 16:19 51.20443 20.72852 34817 ft 473 kts 21°
2026-05-05 16:19 51.29496 20.79147 34809 ft 473 kts 21°
2026-05-05 16:20 51.41573 20.87610 34816 ft 474 kts 21°
2026-05-05 16:22 51.56647 20.98215 34796 ft 475 kts 21°
2026-05-05 16:23 51.68746 21.06791 34800 ft 475 kts 21°
2026-05-05 16:23 51.77806 21.13254 34800 ft 475 kts 21°
2026-05-05 16:24 51.83846 21.17580 34802 ft 475 kts 21°
2026-05-05 16:25 51.91884 21.23348 34796 ft 474 kts 21°
2026-05-05 16:25 52.00937 21.29866 34841 ft 474 kts 22°
2026-05-05 16:26 52.12975 21.38612 34785 ft 474 kts 21°
2026-05-05 16:27 52.19006 21.42954 34785 ft 474 kts 21°
2026-05-05 16:27 52.25034 21.47347 34787 ft 474 kts 21°
2026-05-05 16:28 52.31058 21.51765 34802 ft 475 kts 21°
2026-05-05 16:28 52.37085 21.56204 34797 ft 474 kts 21°
2026-05-05 16:29 52.43066 21.60611 34793 ft 474 kts 21°
2026-05-05 16:29 52.49096 21.65053 34789 ft 474 kts 21°
2026-05-05 16:30 52.55133 21.69513 34793 ft 475 kts 21°
2026-05-05 16:30 52.61148 21.74000 34788 ft 475 kts 21°
2026-05-05 16:31 52.67156 21.78493 34788 ft 475 kts 21°
2026-05-05 16:31 52.73193 21.83004 34804 ft 475 kts 21°
2026-05-05 16:32 52.79185 21.87494 34788 ft 476 kts 21°
2026-05-05 16:32 52.85217 21.92030 34781 ft 476 kts 21°
2026-05-05 16:33 52.91258 21.96579 34791 ft 477 kts 21°
2026-05-05 16:33 52.97307 22.01153 34801 ft 477 kts 21°
2026-05-05 16:34 53.03361 22.05753 34790 ft 478 kts 21°
2026-05-05 16:34 53.09423 22.10375 34800 ft 479 kts 21°
2026-05-05 16:35 53.15438 22.14968 34797 ft 479 kts 21°
2026-05-05 16:35 53.21513 22.19619 34816 ft 480 kts 21°
2026-05-05 16:36 53.27591 22.24284 34812 ft 481 kts 21°
2026-05-05 16:36 53.33671 22.28977 34810 ft 482 kts 22°
2026-05-05 16:37 53.39755 22.33699 34818 ft 482 kts 22°
2026-05-05 16:37 53.45849 22.38436 34832 ft 483 kts 21°
2026-05-05 16:38 53.51951 22.43177 34826 ft 483 kts 21°
2026-05-05 16:38 53.58076 22.47949 34814 ft 486 kts 21°
2026-05-05 16:39 53.64226 22.52768 34836 ft 489 kts 21°
2026-05-05 16:39 53.70397 22.57621 34833 ft 490 kts 21°
2026-05-05 16:40 53.76583 22.62484 34840 ft 491 kts 21°
2026-05-05 16:40 53.82727 22.67344 34848 ft 491 kts 21°
2026-05-05 16:41 53.88927 22.72276 34851 ft 491 kts 21°
2026-05-05 16:41 53.95118 22.77207 34859 ft 492 kts 21°
2026-05-05 16:42 54.01305 22.82154 34886 ft 490 kts 21°
2026-05-05 16:42 54.07456 22.87080 34895 ft 488 kts 21°
2026-05-05 16:43 54.13595 22.92017 34897 ft 487 kts 21°
2026-05-05 16:43 54.19711 22.96948 34884 ft 486 kts 21°
2026-05-05 16:44 54.25816 23.01894 34888 ft 486 kts 21°
2026-05-05 16:44 54.32060 23.06206 34885 ft 480 kts 10°
2026-05-05 16:45 54.38570 23.08411 34887 ft 477 kts
2026-05-05 16:45 54.45106 23.10509 34880 ft 478 kts
2026-05-05 16:46 54.51653 23.12621 34909 ft 479 kts
2026-05-05 16:46 54.58207 23.14744 34896 ft 480 kts
2026-05-05 16:47 54.64740 23.16867 34892 ft 481 kts
2026-05-05 16:47 54.71323 23.19019 34887 ft 482 kts
2026-05-05 16:48 54.77914 23.21177 34886 ft 482 kts
2026-05-05 16:48 54.84521 23.23347 34887 ft 483 kts
2026-05-05 16:49 54.91118 23.25515 34904 ft 483 kts
2026-05-05 16:49 54.97723 23.27703 34898 ft 483 kts
2026-05-05 16:50 55.04329 23.29898 34896 ft 483 kts
2026-05-05 16:50 55.10939 23.32086 34895 ft 483 kts
2026-05-05 16:51 55.17561 23.34295 34911 ft 484 kts
2026-05-05 16:51 55.24168 23.36509 34899 ft 484 kts
2026-05-05 16:52 55.30732 23.38710 34897 ft 484 kts
2026-05-05 16:52 55.37341 23.40942 34895 ft 484 kts
2026-05-05 16:53 55.43958 23.43190 34907 ft 484 kts
2026-05-05 16:53 55.50580 23.45433 34895 ft 484 kts
2026-05-05 16:54 55.57206 23.47683 34904 ft 484 kts
2026-05-05 16:54 55.63785 23.49923 34895 ft 484 kts
2026-05-05 16:55 55.70402 23.52203 34913 ft 485 kts
2026-05-05 16:55 55.77022 23.54492 34903 ft 484 kts
2026-05-05 16:56 55.83644 23.56775 34896 ft 484 kts
2026-05-05 16:56 55.90269 23.59066 34886 ft 485 kts
2026-05-05 16:57 55.96883 23.61363 34901 ft 485 kts
2026-05-05 16:57 56.03518 23.63671 34881 ft 485 kts
2026-05-05 16:58 56.10153 23.66004 34869 ft 486 kts
2026-05-05 16:58 56.16782 23.68338 34872 ft 486 kts
2026-05-05 16:59 56.23424 23.70681 34880 ft 486 kts
2026-05-05 16:59 56.30017 23.73009 34867 ft 486 kts
2026-05-05 17:00 56.36660 23.75380 34867 ft 487 kts
2026-05-05 17:00 56.43312 23.77689 34866 ft 486 kts
2026-05-05 17:01 56.49961 23.79857 34868 ft 486 kts
2026-05-05 17:01 56.56618 23.82003 34879 ft 486 kts
2026-05-05 17:02 56.63270 23.84242 34903 ft 486 kts
2026-05-05 17:02 56.69915 23.86510 34900 ft 486 kts
2026-05-05 17:03 56.76567 23.88756 34918 ft 486 kts
2026-05-05 17:03 56.83213 23.91000 34911 ft 485 kts
2026-05-05 17:04 56.89865 23.93262 34904 ft 485 kts
2026-05-05 17:04 56.96499 23.95530 34878 ft 485 kts
2026-05-05 17:05 57.03130 23.97799 34897 ft 485 kts
2026-05-05 17:05 57.09768 24.00079 34885 ft 485 kts
2026-05-05 17:06 57.16369 24.02355 34878 ft 485 kts
2026-05-05 17:06 57.23014 24.04654 34868 ft 485 kts
2026-05-05 17:07 57.29655 24.06963 34764 ft 484 kts
2026-05-05 17:07 57.32960 24.08116 33995 ft 484 kts
2026-05-05 17:07 57.36272 24.09271 33372 ft 485 kts
2026-05-05 17:08 57.39599 24.10431 33019 ft 487 kts
2026-05-05 17:08 57.42940 24.11600 32746 ft 490 kts
2026-05-05 17:08 57.46301 24.12782 32459 ft 491 kts
2026-05-05 17:08 57.49661 24.13962 32218 ft 493 kts
2026-05-05 17:09 57.53031 24.15144 31950 ft 494 kts
2026-05-05 17:09 57.56379 24.16323 31728 ft 495 kts
2026-05-05 17:09 57.59794 24.17533 31468 ft 495 kts
2026-05-05 17:09 57.63132 24.18724 31214 ft 495 kts
2026-05-05 17:10 57.66524 24.19939 30961 ft 496 kts
2026-05-05 17:10 57.69926 24.21156 30709 ft 498 kts
2026-05-05 17:10 57.73340 24.22370 30459 ft 499 kts
2026-05-05 17:10 57.76756 24.23584 30208 ft 500 kts
2026-05-05 17:11 57.80189 24.24809 29960 ft 502 kts
2026-05-05 17:11 57.83622 24.26038 29697 ft 503 kts
2026-05-05 17:11 57.85899 24.26854 29506 ft 503 kts
2026-05-05 17:11 57.89334 24.28091 29216 ft 502 kts
2026-05-05 17:12 57.92757 24.29330 28943 ft 502 kts
2026-05-05 17:12 57.96182 24.30570 28830 ft 502 kts
2026-05-05 17:12 58.04074 24.35133 28410 ft 513 kts 12°
2026-05-05 17:13 58.06359 24.36645 28223 ft 513 kts 13°
2026-05-05 17:13 58.09720 24.38895 27944 ft 514 kts 13°
2026-05-05 17:13 58.13056 24.41143 27726 ft 514 kts 13°
2026-05-05 17:13 58.16466 24.43438 27459 ft 515 kts 13°
2026-05-05 17:14 58.19800 24.45678 27187 ft 515 kts 13°
2026-05-05 17:14 58.23192 24.47952 26920 ft 516 kts 13°
2026-05-05 17:14 58.26580 24.50216 26662 ft 516 kts 13°
2026-05-05 17:14 58.29979 24.52486 26398 ft 517 kts 13°
2026-05-05 17:15 58.33362 24.54751 26133 ft 518 kts 13°
2026-05-05 17:15 58.36754 24.57029 25261 ft 517 kts 13°
2026-05-05 17:15 58.40153 24.59320 23972 ft 520 kts 13°
2026-05-05 17:15 58.43575 24.61636 22580 ft 522 kts 13°
2026-05-05 17:16 58.46960 24.63940 21757 ft 508 kts 13°
2026-05-05 17:16 58.50240 24.66194 20430 ft 494 kts 13°
2026-05-05 17:16 58.53400 24.68372 19635 ft 472 kts 13°
2026-05-05 17:16 58.56408 24.70445 18795 ft 456 kts 13°
2026-05-05 17:17 58.59392 24.72487 17972 ft 450 kts 13°
2026-05-05 17:17 58.62312 24.74462 17138 ft 450 kts 13°
2026-05-05 17:17 58.65255 24.76452 16404 ft 448 kts 13°
2026-05-05 17:17 58.68194 24.78448 15626 ft 448 kts 13°
2026-05-05 17:18 58.71125 24.80454 14894 ft 446 kts 13°
2026-05-05 17:18 58.74038 24.82459 14178 ft 444 kts 14°
2026-05-05 17:18 58.76939 24.84460 13468 ft 441 kts 14°
2026-05-05 17:18 58.79814 24.86447 12760 ft 437 kts 14°
2026-05-05 17:19 58.82668 24.88427 12077 ft 432 kts 14°
2026-05-05 17:19 58.85484 24.90387 11416 ft 428 kts 14°
2026-05-05 17:19 58.88256 24.92323 11079 ft 415 kts 14°
2026-05-05 17:19 58.90911 24.94189 10950 ft 397 kts 14°
2026-05-05 17:20 58.93448 24.95972 10831 ft 382 kts 14°
2026-05-05 17:20 58.95879 24.97675 10585 ft 371 kts 14°
2026-05-05 17:20 58.98278 24.99349 10338 ft 361 kts 14°
2026-05-05 17:20 59.00609 25.00974 10093 ft 352 kts 13°
2026-05-05 17:21 59.02884 25.02564 9896 ft 342 kts 13°
2026-05-05 17:21 59.05084 25.04106 9773 ft 330 kts 13°
2026-05-05 17:21 59.07206 25.05601 9633 ft 321 kts 13°
2026-05-05 17:22 59.11367 25.08526 9365 ft 317 kts 13°
2026-05-05 17:22 59.13453 25.09989 8929 ft 318 kts 13°
2026-05-05 17:22 59.15522 25.11449 8666 ft 311 kts 14°
2026-05-05 17:22 59.17482 25.12850 8470 ft 292 kts 13°
2026-05-05 17:23 59.19354 25.14190 8021 ft 284 kts 13°
2026-05-05 17:23 59.21177 25.15488 7708 ft 270 kts 14°
2026-05-05 17:23 59.22910 25.16726 7328 ft 262 kts 13°
2026-05-05 17:23 59.24613 25.17935 6879 ft 258 kts 14°
2026-05-05 17:24 59.26286 25.19117 6426 ft 254 kts 14°
2026-05-05 17:24 59.27931 25.20284 5960 ft 250 kts 14°
2026-05-05 17:24 59.29552 25.21435 5548 ft 243 kts 14°
2026-05-05 17:24 59.31088 25.22532 5253 ft 233 kts 14°
2026-05-05 17:25 59.32599 25.23499 5007 ft 218 kts
2026-05-05 17:25 59.33581 25.23771 4924 ft 213 kts 357°
2026-05-05 17:25 59.35554 25.23834 4328 ft 215 kts 355°
2026-05-05 17:25 59.37024 25.23871 3977 ft 208 kts 354°
2026-05-05 17:26 59.38415 25.23414 3783 ft 200 kts 335°
2026-05-05 17:26 59.39615 25.22122 3671 ft 196 kts 317°
2026-05-05 17:26 59.40528 25.20171 3520 ft 193 kts 300°
2026-05-05 17:26 59.41059 25.17803 3337 ft 186 kts 283°
2026-05-05 17:27 59.41186 25.15348 3106 ft 177 kts 270°
2026-05-05 17:27 59.41199 25.12970 2857 ft 171 kts 271°
2026-05-05 17:27 59.41212 25.10648 2621 ft 169 kts 271°
2026-05-05 17:27 59.41224 25.08334 2393 ft 169 kts 271°
2026-05-05 17:28 59.41235 25.06103 2161 ft 158 kts 271°
2026-05-05 17:28 59.41245 25.03976 1945 ft 154 kts 271°
2026-05-05 17:28 59.41255 25.01915 1742 ft 144 kts 271°
2026-05-05 17:28 59.41263 25.00057 1539 ft 133 kts 271°
2026-05-05 17:29 59.41271 24.98251 1363 ft 129 kts 271°
2026-05-05 17:29 59.41278 24.96535 1188 ft 127 kts 271°
2026-05-05 17:29 59.41297 24.94804 974 ft 126 kts 272°
2026-05-05 17:29 59.41320 24.93088 776 ft 126 kts 270°
2026-05-05 17:30 59.41310 24.91380 590 ft 125 kts 269°
2026-05-05 17:30 59.41316 24.89683 453 ft 125 kts 271°
2026-05-05 17:30 59.41311 24.87978 315 ft 125 kts 270°
2026-05-05 17:30 59.41316 24.86292 183 ft 123 kts 270°
2026-05-05 17:31 59.41316 24.84879 162 ft 68 kts 271°
2026-05-05 17:31 59.41326 24.84146 160 ft 46 kts 271°
2026-05-05 17:31 59.41327 24.83584 164 ft 38 kts 268°
2026-05-05 17:31 59.41326 24.83049 161 ft 46 kts 271°
2026-05-05 17:32 59.41403 24.82537 161 ft 25 kts 303°
2026-05-05 17:32 59.41445 24.82386 162 ft 0 kts 300°
2026-05-05 17:32 59.41445 24.82385 162 ft 0 kts 300°
2026-05-05 17:33 59.41454 24.82355 162 ft 8 kts 300°
2026-05-05 17:33 59.41489 24.82237 162 ft 11 kts 300°
2026-05-05 17:33 59.41501 24.82086 162 ft 12 kts 264°
2026-05-05 17:34 59.41491 24.81904 162 ft 15 kts 264°
2026-05-05 17:34 59.41504 24.81700 162 ft 16 kts 279°
2026-05-05 17:34 59.41506 24.81459 162 ft 20 kts 271°
2026-05-05 17:34 59.41527 24.81215 162 ft 16 kts 314°
2026-05-05 17:35 59.41633 24.81174 162 ft 16 kts 346°
2026-05-05 17:35 59.41665 24.80989 162 ft 16 kts 269°
2026-05-05 17:35 59.41665 24.80765 162 ft 17 kts 270°
2026-05-05 17:35 59.41678 24.80538 162 ft 17 kts 307°
2026-05-05 17:36 59.41739 24.80375 162 ft 14 kts 279°
2026-05-05 17:36 59.41751 24.80172 162 ft 15 kts 281°
2026-05-05 17:36 59.41791 24.80075 162 ft 3 kts 316°
2026-05-05 17:36 59.41801 24.80056 162 ft 0 kts 315°
2026-05-05 17:37 59.41801 24.80055 162 ft 0 kts 315°